Regional Weather Roundup
Issued by NWS Jackson, KY

Home | Current Version | Previous Version | Graphics & Text | Print | Product List | Glossary On
Versions: 1 2 3 4 5 6 7 8 9 10 11 12 13 14 15 16 17 18 19 20 21 22 23 24 25 26 27 28 29 30 31 32 33 34 35 36 37 38 39 40 41 42 43 44 45 46 47 48 49 50
369
ASUS43 KJKL 280510
RWRJKL

EAST KENTUCKY HOURLY WEATHER ROUNDUP
NATIONAL WEATHER SERVICE JACKSON KY
1200 AM EST TUE FEB 28 2017

NOTE: "FAIR" INDICATES FEW OR NO CLOUDS BELOW 12,000 FEET WITH
NO SIGNIFICANT WEATHER AND/OR OBSTRUCTIONS TO VISIBILITY.

* THESE REPORTS ARE NOT UNDER NWS QUALITY CONTROL AND MAY NOT
  REPORT WEATHER SUCH AS PRECIPITATION AND FOG.

KYZ079-080-083-085-087-088-110-112-115-119-120-280600
...EASTERN KENTUCKY...

CITY           SKY/WX    TMP DP  RH WIND       PRES   REMARKS
JACKSON        CLEAR     48  33  56 S3        30.23F
LONDON         CLEAR     40  33  76 CALM      30.23F
SOMERSET*      CLEAR     43  37  81 CALM      30.25R
MONTICELLO*    CLEAR     39  37  92 NE8       30.24F WCI  33
WILLIAMSBURG*  CLEAR     48  39  71 SE7       30.24S
MIDDLESBORO*   CLEAR     39  35  86 CALM      30.28F
HARLAN APT*    CLEAR     45  32  61 CALM      30.26F
PIKE CO APT*     N/A     51  31  46 S7        30.24F
BIG SANDY APT* CLEAR     51  32  49 CALM      30.24S
MOREHEAD APT*  CLEAR     46  34  61 S5        30.24R
ASHLAND*       CLEAR     37  36  93 CALM      30.22S
$$

KYZ035-036-041-042-044-050-067-078-099-280600
...CENTRAL KENTUCKY...

CITY           SKY/WX    TMP DP  RH WIND       PRES   REMARKS
FLEMING/MASON* CLEAR     44  35  70 S6        30.23R
DANVILLE*      CLEAR     43  37  81 S6        30.22S
LEXINGTON      CLEAR     46  36  68 SE8       30.20S
FRANKFORT      PTCLDY    47  37  68 SE6       30.18F
LOUISVILLE     MOCLDY    50  39  66 S10       30.16F
LEBANON*         N/A     48  41  76 S13       30.19F
GLASGOW*       CLEAR     49  42  78 SE5       30.18F
BOWLING GREEN  CLOUDY    50  44  80 SE3       30.18F
$$

KYZ091>093-OHZ055-061-077-WVZ005-015-034-035-042-280600
...SOUTHERN OHIO/WEST VIRGINIA...

CITY           SKY/WX    TMP DP  RH WIND       PRES   REMARKS
COVINGTON      MOCLDY    43  39  86 S6        30.18F
COLUMBUS       CLOUDY    42  39  89 CALM      30.23R
DAYTON         CLOUDY    42  38  85 SE9       30.19F
WILMINGTON     CLOUDY    40  37  89 S5        30.20S
HUNTINGTON     CLEAR     43  37  79 CALM      30.23F
CHARLESTON     MOCLDY    45  39  79 CALM      30.24F
PINEVILLE*     MOCLDY    42  33  72 MISG      30.32S
BECKLEY        PTCLDY    46  28  49 SE7       30.28S
BLUEFIELD      CLEAR     46  28  49 VRB7      30.30R
LOGAN CO APT*  MOCLDY    52  28  40 S7        30.24F
$$

VAZ002-007-008-TNZ017-027-036-066-071-280600
...SOUTHWEST VIRGINIA/EAST TENNESSEE...

CITY           SKY/WX    TMP DP  RH WIND       PRES   REMARKS
WISE*          CLEAR     50  32  50 S9        30.28S
JONESVILLE*      N/A     39  36  87 CALM      30.30S
ABINGDON*      CLEAR     46  34  62 CALM      30.29S
BRISTOL        PTCLDY    45  36  70 N3        30.28S
MORRISTOWN*    CLEAR     43  36  75 CALM      30.27R
SEVIERVILLE*   CLEAR     37  34  87 CALM      30.27S
KNOXVILLE      PTCLDY    48  39  71 CALM      30.28R
LAFOLLETTE*    CLEAR     37  36  93 CALM      30.30S
OAK RIDGE      MOCLDY    48  41  76 CALM      30.29R
CROSSVILLE     CLOUDY    49  44  83 S7        30.25S
NASHVILLE      CLOUDY    52  46  80 S8        30.19F
$$

...KEY TO REMARKS...
VSB - VISIBILITY IN MILES
WCI - WIND CHILL INDEX
HX  - HEAT INDEX

$$




USA.gov is the U.S. government's official web portal to all federal, state and local government web resources and services.